Location: Basin
(44.3800°N, 108.0380°W)
Time: 20:58:10
(UTC-06:00)

N. Korean satellite - Visible Passes

Search period start: 20 October 2019 00:00
Search period end: 30 October 2019 00:00
Orbit: 455 x 508 km, 97.2° (Epoch: 20 October)

Date Brightness Start Highest point End Pass type
(mag) Time Alt. Az. Time Alt. Az. Time Alt. Az.
20 Oct 8.6 06:40:45 10° NNE 06:44:05 34° E 06:47:26 10° SSE visible
20 Oct 8.8 18:51:13 10° SSW 18:54:16 30° W 18:57:23 10° NNW visible
21 Oct 9.9 06:16:08 10° NE 06:18:38 18° E 06:21:10 10° SE visible
23 Oct 7.4 06:58:00 10° NNE 07:01:36 58° E 07:05:13 10° S visible
23 Oct 9.7 19:09:19 10° SW 19:11:50 19° W 19:14:21 10° NW visible
24 Oct 9.0 06:33:01 10° NE 06:36:13 28° E 06:39:26 10° SSE visible
24 Oct 8.2 18:43:08 10° SSW 18:46:22 38° W 18:49:39 10° NNW visible
25 Oct 10.1 06:08:38 10° ENE 06:10:44 15° E 06:12:51 10° SE visible
26 Oct 10.3 19:28:04 10° WSW 19:29:24 12° W 19:30:43 10° WNW visible
27 Oct 7.9 06:50:10 10° NNE 06:53:44 46° E 06:57:18 10° S visible
27 Oct 9.3 19:01:03 10° SSW 19:03:51 23° W 19:06:44 10° NW visible
28 Oct 9.4 06:25:19 10° NE 06:28:18 23° E 06:31:18 10° SSE visible
28 Oct 7.7 18:35:05 10° S 18:38:26 49° W 18:41:51 10° NNW visible
29 Oct 10.3 06:01:17 10° ENE 06:02:47 12° E 06:04:17 10° ESE visible
